TimeMST,TemperatureF,Dew PointF,Humidity,Sea Level PressureIn,VisibilityMPH,Wind Direction,Wind SpeedMPH,Gust SpeedMPH,PrecipitationIn,Events,Conditions,WindDirDegrees,DateUTC
12:15 AM,26.2,17.1,68,30.19,10.0,NE,8.1,-,N/A,,Clear,50,2013-02-27 07:15:00
12:35 AM,25.3,16.2,68,30.20,10.0,NE,8.1,-,N/A,,Clear,40,2013-02-27 07:35:00
12:55 AM,24.4,14.7,67,30.20,10.0,NE,8.1,-,N/A,,Clear,50,2013-02-27 07:55:00
1:15 AM,23.9,14.5,67,30.21,10.0,NE,6.9,-,N/A,,Clear,50,2013-02-27 08:15:00
1:35 AM,22.8,14.4,70,30.22,10.0,NNE,5.8,-,N/A,,Clear,30,2013-02-27 08:35:00
1:55 AM,22.1,14.0,71,30.23,10.0,NNE,5.8,-,N/A,,Clear,30,2013-02-27 08:55:00
2:15 AM,21.2,13.8,73,30.23,10.0,NNE,4.6,-,N/A,,Clear,20,2013-02-27 09:15:00
2:35 AM,20.3,13.1,74,30.24,10.0,NE,6.9,-,N/A,,Clear,40,2013-02-27 09:35:00
2:55 AM,21.2,12.9,70,30.24,10.0,ENE,5.8,-,N/A,,Clear,60,2013-02-27 09:55:00
3:15 AM,21.0,12.6,70,30.24,10.0,NE,5.8,-,N/A,,Clear,50,2013-02-27 10:15:00
3:35 AM,21.0,12.2,69,30.24,10.0,NE,6.9,-,N/A,,Clear,50,2013-02-27 10:35:00
3:55 AM,19.9,12.0,71,30.25,10.0,ENE,8.1,-,N/A,,Clear,70,2013-02-27 10:55:00
4:15 AM,19.4,11.7,72,30.26,10.0,ENE,6.9,-,N/A,,Clear,60,2013-02-27 11:15:00
4:35 AM,19.6,11.3,70,30.26,10.0,ENE,8.1,-,N/A,,Clear,70,2013-02-27 11:35:00
4:55 AM,18.9,10.9,71,30.27,10.0,NE,5.8,-,N/A,,Clear,50,2013-02-27 11:55:00
5:15 AM,19.2,10.4,69,30.28,10.0,NNE,8.1,-,N/A,,Clear,30,2013-02-27 12:15:00
5:35 AM,17.6,10.4,73,30.28,10.0,East,5.8,-,N/A,,Clear,90,2013-02-27 12:35:00
5:55 AM,17.2,10.8,76,30.29,10.0,East,5.8,-,N/A,,Clear,90,2013-02-27 12:55:00
6:15 AM,17.4,10.4,74,30.30,10.0,East,5.8,-,N/A,,Clear,90,2013-02-27 13:15:00
6:35 AM,17.8,9.5,70,30.31,10.0,East,5.8,-,N/A,,Clear,80,2013-02-27 13:35:00
6:55 AM,17.6,9.1,69,30.32,10.0,NE,6.9,-,N/A,,Clear,50,2013-02-27 13:55:00
7:15 AM,18.1,9.0,67,30.32,10.0,NE,8.1,-,N/A,,Clear,50,2013-02-27 14:15:00
7:35 AM,19.8,9.3,64,30.33,10.0,NE,8.1,-,N/A,,Clear,50,2013-02-27 14:35:00
7:55 AM,20.3,10.8,67,30.34,10.0,ENE,4.6,-,N/A,,Clear,70,2013-02-27 14:55:00
8:15 AM,21.9,10.9,63,30.35,10.0,ENE,6.9,-,N/A,,Clear,70,2013-02-27 15:15:00
8:35 AM,23.2,10.9,60,30.36,10.0,East,6.9,-,N/A,,Clear,80,2013-02-27 15:35:00
8:55 AM,24.4,12.2,60,30.36,10.0,East,3.5,-,N/A,,Clear,100,2013-02-27 15:55:00
9:15 AM,25.7,12.6,58,30.36,10.0,ENE,4.6,-,N/A,,Clear,70,2013-02-27 16:15:00
9:35 AM,26.4,12.6,56,30.36,10.0,NE,4.6,-,N/A,,Clear,50,2013-02-27 16:35:00
9:55 AM,27.7,13.6,56,30.36,10.0,Calm,Calm,-,N/A,,Clear,0,2013-02-27 16:55:00
10:15 AM,29.1,14.5,55,30.36,10.0,SE,3.5,-,N/A,,Clear,140,2013-02-27 17:15:00
10:35 AM,29.3,15.6,57,30.35,10.0,Calm,Calm,-,N/A,,Clear,0,2013-02-27 17:35:00
10:55 AM,30.7,15.6,54,30.35,10.0,Calm,Calm,-,N/A,,Clear,0,2013-02-27 17:55:00
11:15 AM,31.6,16.7,54,30.35,10.0,Calm,Calm,-,N/A,,Clear,0,2013-02-27 18:15:00
11:35 AM,31.6,16.2,53,30.35,10.0,Calm,Calm,-,N/A,,Clear,0,2013-02-27 18:35:00
11:55 AM,33.1,15.8,49,30.34,10.0,ESE,3.5,-,N/A,,Clear,110,2013-02-27 18:55:00
12:15 PM,33.6,15.6,48,30.33,10.0,Calm,Calm,-,N/A,,Clear,0,2013-02-27 19:15:00
12:35 PM,34.9,13.8,42,30.32,10.0,ENE,3.5,-,N/A,,Clear,70,2013-02-27 19:35:00
12:55 PM,35.6,12.7,39,30.32,10.0,Calm,Calm,-,N/A,,Clear,0,2013-02-27 19:55:00
1:15 PM,35.6,13.5,40,30.31,10.0,Calm,Calm,-,N/A,,Clear,0,2013-02-27 20:15:00
1:35 PM,36.7,12.7,37,30.30,10.0,Calm,Calm,-,N/A,,Clear,0,2013-02-27 20:35:00
1:55 PM,36.7,12.7,37,30.29,10.0,West,3.5,-,N/A,,Clear,280,2013-02-27 20:55:00
2:15 PM,37.2,12.4,36,30.28,10.0,SW,4.6,-,N/A,,Clear,220,2013-02-27 21:15:00
2:35 PM,38.1,12.6,35,30.28,10.0,South,5.8,-,N/A,,Clear,180,2013-02-27 21:35:00
2:55 PM,38.5,12.6,35,30.28,10.0,Calm,Calm,-,N/A,,Clear,0,2013-02-27 21:55:00
3:15 PM,38.8,12.6,34,30.27,10.0,Calm,Calm,-,N/A,,Clear,0,2013-02-27 22:15:00
3:35 PM,39.6,12.2,33,30.27,10.0,Calm,Calm,-,N/A,,Clear,0,2013-02-27 22:35:00
3:55 PM,39.9,10.2,30,30.27,10.0,SW,6.9,-,N/A,,Clear,230,2013-02-27 22:55:00
4:15 PM,39.7,6.4,25,30.27,10.0,WSW,5.8,-,N/A,,Clear,250,2013-02-27 23:15:00
4:35 PM,40.5,6.6,25,30.27,10.0,SSW,6.9,-,N/A,,Clear,210,2013-02-27 23:35:00
4:55 PM,40.3,2.5,21,30.27,10.0,WSW,10.4,-,N/A,,Clear,240,2013-02-27 23:55:00
5:15 PM,40.1,0.1,19,30.27,10.0,West,10.4,-,N/A,,Clear,260,2013-02-28 00:15:00
5:35 PM,39.2,0.1,19,30.27,10.0,West,12.7,-,N/A,,Clear,280,2013-02-28 00:35:00
5:55 PM,37.9,1.8,22,30.28,10.0,WNW,8.1,-,N/A,,Clear,300,2013-02-28 00:55:00
6:15 PM,36.0,7.2,30,30.28,10.0,North,6.9,-,N/A,,Clear,360,2013-02-28 01:15:00
6:35 PM,32.7,8.6,37,30.30,10.0,North,5.8,-,N/A,,Clear,360,2013-02-28 01:35:00
7:15 PM,31.6,12.2,45,30.30,10.0,North,4.6,-,N/A,,Clear,10,2013-02-28 02:15:00
7:35 PM,31.8,8.1,37,30.31,10.0,North,4.6,-,N/A,,Clear,10,2013-02-28 02:35:00
7:55 PM,30.4,8.6,40,30.31,10.0,Calm,Calm,-,N/A,,Clear,0,2013-02-28 02:55:00
8:15 PM,29.3,8.1,41,30.32,10.0,NE,4.6,-,N/A,,Clear,40,2013-02-28 03:15:00
8:35 PM,27.9,9.5,46,30.32,10.0,NNE,4.6,-,N/A,,Clear,30,2013-02-28 03:35:00
8:55 PM,28.2,9.3,45,30.32,10.0,ENE,4.6,-,N/A,,Clear,60,2013-02-28 03:55:00
9:35 PM,28.2,10.6,48,30.33,10.0,ENE,4.6,-,N/A,,Clear,60,2013-02-28 04:35:00
10:15 PM,25.7,14.5,63,30.33,10.0,ENE,6.9,-,N/A,,Clear,70,2013-02-28 05:15:00
10:35 PM,24.8,13.6,63,30.34,10.0,NNE,5.8,-,N/A,,Clear,30,2013-02-28 05:35:00
10:55 PM,23.9,13.1,63,30.34,10.0,NE,6.9,-,N/A,,Clear,50,2013-02-28 05:55:00
11:15 PM,23.5,13.3,65,30.34,10.0,East,4.6,-,N/A,,Clear,90,2013-02-28 06:15:00
11:35 PM,23.7,14.0,66,30.34,10.0,East,5.8,-,N/A,,Clear,100,2013-02-28 06:35:00
11:55 PM,23.0,13.8,68,30.34,10.0,East,3.5,-,N/A,,Clear,90,2013-02-28 06:55:00